Lid_Strength_Index
2 3 3 4 4 4 4 4 3 3 3 3 2 3 3 3 3 3 3 3 3 4
2 4 5 5 4 3 4 2 3 3 3 3 3 3 3 3 3 3 3 3 3 3
4 6 6 5 4 4 4 3 4 4 3 3 3 3 3 3 3 3 3 3 3 3
6 6 5 5 4 4 4 4 4 3 3 3 3 3 3 3 3 3 3 3 3 3
5 5 5 4 3 3 4 4 4 3 3 3 3 4 3 4 3 4 4 3 4 4
4 5 4 4 4 4 4 4 3 3 3 3 3 3 3 3 3 4 3 3 3 5
5 5 4 3 4 4 3 4 4 4 4 5 5 5 4 3 3 3 4 4 5 6
5 4 3 3 4 3 3 4 4 5 6 7 7 7 7 5 4 4 5 5 5 6
4 4 4 4 4 4 4 4 5 6 7 8 8 9 8 7 5 4 5 7 6 7
4 4 4 4 4 4 4 4 6 6 8 9 10 10 10 8 7 5 6 7 8 7
4 4 4 4 5 6 6 5 6 7 9 11 11 11 11 10 7 5 7 8 10 10
4 4 4 4 6 6 6 5 5 6 9 11 13 11 11 9 5 9 10 10 10 10
4 4 5 5 6 6 5 5 4 6 9 9 13 11 11 10 8 9 10 11 11 9
4 4 4 5 6 6 5 5 5 6 9 10 12 12 12 11 12 10 9 11 11 11